AEE1B LTBJ-LGAV

Flight info

Callsign AEE1B
Flight time N/A
Altitude 26000
Route REDRA UP32 RIPLI UL995 VARIX
Aircraft A320/M-SDE3FGHIRWY/LB1

Departure

Time 2026-04-30 18:01
Airport Adnan Menderes International Airport (LTBJ)

Arrival

Time N/A
Airport Athens Eleftherios Venizelos International Airport (LGAV)
Time Latitude Longitude Altitude Speed Heading
2026-04-30 17:39 38.29537 27.14983 411 ft 0 kts 257°
2026-04-30 17:48 38.29544 27.15021 411 ft 3 kts 257°
2026-04-30 17:48 38.29582 27.15057 406 ft 0 kts 167°
2026-04-30 17:51 38.29519 27.15077 411 ft 11 kts 166°
2026-04-30 17:52 38.29218 27.15168 407 ft 18 kts 167°
2026-04-30 17:53 38.28747 27.15377 410 ft 14 kts 166°
2026-04-30 17:54 38.28507 27.15449 413 ft 0 kts 167°
2026-04-30 17:56 38.28461 27.15463 414 ft 8 kts 167°
2026-04-30 17:57 38.28187 27.15546 415 ft 18 kts 167°
2026-04-30 17:58 38.28114 27.15697 415 ft 0 kts 77°
2026-04-30 17:59 38.28123 27.15748 415 ft 8 kts 77°
2026-04-30 18:00 38.28297 27.15763 419 ft 49 kts 347°
2026-04-30 18:00 38.30881 27.14995 769 ft 168 kts 346°
2026-04-30 18:01 38.33127 27.14348 2059 ft 165 kts 346°
2026-04-30 18:02 38.37104 27.13254 2901 ft 230 kts 343°
2026-04-30 18:02 38.39274 27.07960 4740 ft 258 kts 266°
2026-04-30 18:03 38.38432 27.01126 7337 ft 265 kts 245°
2026-04-30 18:04 38.35878 26.94730 8983 ft 272 kts 244°
2026-04-30 18:05 38.32564 26.86070 9012 ft 272 kts 244°
2026-04-30 18:06 38.29076 26.77016 10611 ft 319 kts 244°
2026-04-30 18:07 38.24119 26.67255 13189 ft 343 kts 219°
2026-04-30 18:08 38.17546 26.63199 15053 ft 356 kts 206°
2026-04-30 18:09 38.08305 26.58055 17406 ft 369 kts 206°
2026-04-30 18:10 37.98908 26.52375 19656 ft 379 kts 219°
2026-04-30 18:11 37.92084 26.42147 21807 ft 388 kts 234°
2026-04-30 18:11 37.87118 26.33914 23291 ft 397 kts 234°
2026-04-30 18:12 37.82051 26.25495 24567 ft 404 kts 234°
2026-04-30 18:13 37.78634 26.19808 25376 ft 407 kts 234°
2026-04-30 18:13 37.74047 26.12196 25996 ft 409 kts 234°
2026-04-30 18:14 37.70010 26.05522 26000 ft 408 kts 234°
2026-04-30 18:15 37.64846 25.97025 26004 ft 408 kts 234°
2026-04-30 18:15 37.59664 25.88500 26004 ft 408 kts 234°
2026-04-30 18:16 37.56205 25.82837 26005 ft 408 kts 234°
2026-04-30 18:16 37.52726 25.77166 26004 ft 408 kts 234°
2026-04-30 18:17 37.50991 25.74337 26003 ft 408 kts 234°
2026-04-30 18:17 37.49255 25.71511 26007 ft 408 kts 234°
2026-04-30 18:17 37.45777 25.65866 26005 ft 408 kts 234°
2026-04-30 18:18 37.44035 25.63041 26007 ft 408 kts 234°
2026-04-30 18:18 37.42300 25.60213 26006 ft 408 kts 234°
2026-04-30 18:18 37.40569 25.57388 26006 ft 408 kts 235°
2026-04-30 18:18 37.38838 25.54562 26008 ft 408 kts 235°
2026-04-30 18:19 37.37110 25.51743 26007 ft 408 kts 235°
2026-04-30 18:19 37.35375 25.48919 26005 ft 408 kts 234°
2026-04-30 18:19 37.33641 25.46101 26006 ft 407 kts 235°
2026-04-30 18:19 37.31908 25.43283 26008 ft 407 kts 236°
2026-04-30 18:20 37.30434 25.40273 26006 ft 403 kts 247°
2026-04-30 18:20 37.29510 25.36972 26007 ft 401 kts 258°
2026-04-30 18:20 37.29160 25.33514 26008 ft 399 kts 270°
2026-04-30 18:20 37.29384 25.30101 26005 ft 397 kts 281°
2026-04-30 18:21 37.30118 25.26809 25742 ft 387 kts 288°
2026-04-30 18:21 37.30969 25.23625 25268 ft 383 kts 288°
2026-04-30 18:21 37.31822 25.20462 24803 ft 381 kts 288°
2026-04-30 18:21 37.32669 25.17330 24330 ft 379 kts 288°
2026-04-30 18:22 37.33516 25.14202 23878 ft 377 kts 288°
2026-04-30 18:22 37.35182 25.07986 22922 ft 373 kts 287°
2026-04-30 18:22 37.36002 25.04902 22457 ft 371 kts 287°
2026-04-30 18:23 37.36817 25.01837 21996 ft 368 kts 287°
2026-04-30 18:23 37.37627 24.98798 21540 ft 366 kts 287°
2026-04-30 18:23 37.38434 24.95776 21060 ft 364 kts 287°
2026-04-30 18:23 37.39236 24.92770 20610 ft 361 kts 287°
2026-04-30 18:24 37.40568 24.87720 19840 ft 357 kts 287°
2026-04-30 18:24 37.41347 24.84759 19376 ft 355 kts 287°
2026-04-30 18:24 37.42122 24.81826 18908 ft 352 kts 287°
2026-04-30 18:25 37.42891 24.78912 18456 ft 350 kts 287°
2026-04-30 18:25 37.44420 24.73134 17423 ft 346 kts 287°
2026-04-30 18:25 37.45175 24.70274 16920 ft 343 kts 287°
2026-04-30 18:26 37.46657 24.64650 15951 ft 338 kts 288°
2026-04-30 18:26 37.47394 24.61842 15466 ft 336 kts 288°
2026-04-30 18:26 37.48121 24.59061 14994 ft 334 kts 288°
2026-04-30 18:27 37.49567 24.53540 14072 ft 330 kts 288°
2026-04-30 18:27 37.50280 24.50800 13593 ft 328 kts 288°